SCP
0 0 0 0 0 0 0 0 0 0 0 0 0 0 0 0 0 0 0 0 0 0 0 0 0 0 0 0 0 0 0 0 0 0 0 0 0 0
0 0 0 0 0 0 0 0 0 0 0 0 0 0 0 0 0 0 0 0 0 0 0 0 0 0 0 0 0 0 0 0 0 0 0 0 0 0
0 0 0 0 0 0 0 0 0 0 0 0 0 0 0 0 0 0 0 0 0 0 0 0 0 0 0 0 0 0 0 0 0 0 0 0 0 0
0 0 0 0 0 0 0 0 0 0 0 0 0 0 0 0 0 0 0 0 0 0 0 0 0 0 0 0 0 0 0 0 0 0 0 0 0 0
0 0 0 0 0 0 0 0 0 0 0 0 0 0 0 0 0 0 0 0 0 0 0 0 0 0 0 0 0 0 0 0 0 0 0 0 0 0
0 0 0 0 0 0 0 0 0 0 0 0 0 0 0 0 0 0 0 0 0 0 0 0 0 0 0 0 0 0 0 0 0 0 0 0 0 0
0 0 0 0 0 0 0 0 0 0 0 0 0 0 0 0 0 0 0 0 0 0 0 0 0 0 0 0 0 0 0 0 0 0 0 0 0 0
0 0 0 0 0 0 0 0 0 0 0 0 0 0 0 0 0 0 0 0 0 0 0 0 0 0 0 0 0 0 0 0 0 0 0 0 0 0
0 0 0 0 0 0 0 0 0 0 0 0 0 0 0 0 0 0 0 0 0 0 0 0 0 0 0 0 0 0 0 0 0 0 0 0 0 0
0 0 0 0 0 0 0 0 0 0 0 0 0 0 0 0 0 0 0 0 0 0 0 0 0 0 0 0 0 0 0 0 0 0 0 0 0 0
0 0 0 0 0 0 0 0 0 0 0 0 0 0 0 0 0 0 0 0 0 0 0 0 0 0 0 0 0 0 0 0 0 0 0 0 0 0
0 0 0 0 0 0 0 0 0 0 0 0 0 0 0 0 0 0 0 0 0 0 0 0 0 0 0 0 0 0 0 0 0 0 0 0 0 0
0 0 0 0 0 0 0 0 0 0 0 0 0 0 0 0 0 0 0 0 0 0 0 0 0 0 0 0 0 0 0 0 0 0 0 0 0 0
0 0 0 0 0 0 0 0 0 0 0 0 0 0 0 0 0 0 0 0 0 0 0 0 0 0 0 0 0 0 0 0 0 0 0 0 0 0
0 0 0 0 0 0 0 0 0 0 0 0 0 0 0 0 0 0 0 0 0 0 0 0 0 0 0 0 0 0 0 0 0 0 0 0 0 0
0 0 0 0 0 0 0 0 0 0 0 0 0 0 0 0 0 0 0 0 0 0 0 0 0 0 0 0 0 0 0 0 0 0 0 0 0 0
0 0 0 0 0 0 0 0 0 0 0 0 0 0 0 0 0 0 0 0 0 0 0 0 0 0 0 0 0 0 0 0 0 0 0 0 0 0
0 0 0 0 0 0 0 0 0 0 0 0 0 0 0 0 0 0 0 0 0 0 0 0 0 0 0 0 0 0 0 0 0 0 0 0 0 0
0 0 0 0 0 0 0 0 0 0 0 0 0 0 0 0 0 0 0 0 0 0 0 0 0 0 0 0 0 0 0 0 0 0 0 0 0 0
0 0 0 0 0 0 0 0 0 0 0 0 0 0 0 0 0 0 0 0 0 0 0 0 0 0 0 0 0 0 0 0 0 0 0 0 0 0
0 0 0 0 0 0 0 0 0 0 0 0 0 0 0 0 0 0 0 0 0 0 0 0 0 0 0 0 0 0 0 0 0 0 0 0 0 0
0 0 0 0 0 0 0 0 0 0 0 0 0 0 0 0 0 0 0 0 0 0 0 0 0 0 0 0 0 0 0 0 0 0 0 0 0 0
0 0 0 0 0 0 0 0 0 0 0 0 0 0 0 0 0 0 0 0 0 0 0 0 0 0 0 0 0 0 0 0 0 0 0 0 0 0
Wind_Speed
2 2 2 1 1 1 1 2 2 3 4 3 2 2 2 2 5 4 4 9 11 12 12 12 12 12 12 13 13 14 14 14 14 15 15 16 16 16
2 2 2 2 1 1 2 2 2 3 4 3 3 3 4 4 6 4 4 11 11 12 12 11 12 12 12 13 13 13 14 14 14 15 16 16 16 16
2 2 3 2 2 2 2 2 2 3 5 4 3 3 4 4 5 4 4 4 5 11 12 12 12 12 12 12 13 13 13 14 14 15 15 16 16 16
3 3 4 3 3 2 2 3 3 3 4 6 4 3 4 4 5 5 5 5 4 9 12 12 11 11 12 12 12 13 13 14 14 15 15 16 16 16
4 4 4 3 4 3 3 3 3 3 3 4 4 3 3 3 4 4 5 4 5 7 9 10 10 11 12 12 12 13 13 14 14 14 15 15 15 15
4 4 4 5 5 4 4 4 3 3 2 3 3 4 3 3 3 4 5 4 4 5 6 7 9 11 11 12 12 13 13 13 14 14 14 14 14 14
3 4 4 5 6 5 4 3 3 2 2 3 3 3 3 3 3 3 5 5 4 3 4 4 4 4 5 9 11 12 13 13 13 13 14 14 13 13
4 4 4 4 6 7 7 6 5 4 4 3 3 4 5 4 3 4 4 5 4 2 3 5 3 4 4 4 9 12 12 13 13 13 13 13 13 13
3 3 3 3 4 3 5 6 6 7 7 4 5 5 5 4 4 5 4 4 5 4 4 6 3 5 4 6 12 11 12 12 13 13 13 12 13 13
4 4 4 4 4 4 3 3 3 4 5 4 4 5 5 4 4 4 5 5 5 3 2 4 4 4 5 5 9 10 11 12 12 13 12 12 12 12
4 4 4 4 6 6 4 4 4 4 5 6 6 6 7 7 5 2 3 3 4 3 1 2 3 4 4 4 5 8 10 12 13 13 13 13 12 11
3 3 5 5 6 6 3 3 4 4 3 3 4 4 4 5 5 3 3 3 3 3 1 1 2 3 4 3 2 3 5 9 12 13 13 12 12 6
3 3 3 6 7 6 5 3 5 3 2 2 2 3 3 2 2 3 3 3 3 4 2 1 2 2 3 4 4 3 3 4 5 7 10 12 12 8
3 3 3 6 6 6 4 4 4 2 1 1 2 2 3 3 3 3 3 4 4 5 5 3 3 3 3 4 5 4 3 4 4 5 4 9 10 11
3 4 4 5 4 3 3 3 1 1 1 2 2 3 3 4 3 3 3 3 3 4 4 4 4 3 3 4 4 4 4 4 4 4 4 5 5 5
2 3 4 3 2 2 2 1 1 1 2 2 2 3 3 3 2 2 2 2 2 3 3 3 3 3 3 4 4 5 4 4 4 4 5 4 4 4
1 0 0 0 1 1 1 1 1 1 1 2 2 2 3 3 2 2 2 2 2 3 3 3 2 2 3 3 3 4 4 4 4 4 4 5 4 4
1 1 1 1 1 1 1 1 1 1 1 1 2 2 2 2 2 2 2 2 2 2 2 2 3 3 2 2 3 3 3 3 4 4 3 4 5 4
2 1 2 2 2 2 2 2 2 2 1 2 2 2 2 2 2 2 2 2 2 2 2 2 1 2 3 4 4 2 2 4 4 4 3 3 4 5
2 2 2 2 2 2 2 2 2 1 1 1 2 2 2 1 1 2 2 2 2 2 2 2 1 1 2 3 3 4 4 3 3 4 4 3 3 5
2 2 2 2 2 2 2 2 2 2 2 2 2 2 2 1 1 2 2 2 2 2 2 3 3 4 2 1 2 4 4 4 3 3 3 4 4 3
2 2 2 2 2 2 2 2 2 2 2 2 2 2 1 1 1 2 2 2 2 2 3 3 2 2 1 1 2 3 4 5 5 5 4 3 2 3
2 2 2 2 2 2 2 2 3 2 2 2 2 2 1 1 1 1 1 1 2 2 2 2 2 1 1 1 2 2 4 4 4 4 4 6 5 5
Wind_Direction
200 212 222 237 232 222 217 201 223 280 286 271 280 285 296 293 306 306 299 309 314 315 314 313 311 312 314 312 311 310 309 309 309 309 308 308 308 308
211 215 232 238 234 227 229 226 218 241 270 270 264 286 297 302 305 306 296 311 312 311 310 311 311 311 313 311 309 307 307 309 308 307 307 307 307 307
229 230 241 234 236 238 235 234 233 229 260 278 268 280 282 288 297 294 289 290 294 305 306 307 307 308 312 311 309 308 309 308 306 305 305 306 306 306
235 234 241 238 238 241 235 241 242 235 247 274 281 280 277 283 288 292 299 299 291 302 305 306 306 308 311 311 310 308 308 309 307 304 303 304 304 305
229 232 238 232 240 244 244 247 248 248 241 256 279 285 283 290 296 296 294 293 298 304 306 308 308 309 311 312 313 312 311 309 306 304 303 302 303 303
232 232 234 232 236 240 246 245 249 250 250 262 282 290 291 292 289 303 309 305 302 307 304 305 307 311 313 314 314 314 311 308 307 306 304 303 302 303
239 239 238 243 248 246 249 245 242 248 254 265 281 293 296 305 298 299 301 306 296 290 301 300 303 299 305 309 312 312 312 312 311 309 307 307 305 303
240 245 248 252 258 263 269 268 258 251 256 264 273 281 286 288 294 292 299 309 305 302 315 302 298 295 296 293 306 312 314 317 317 315 312 310 307 303
236 241 260 265 267 255 264 275 273 269 262 259 267 270 280 279 283 284 283 289 286 293 306 294 299 291 293 300 311 314 320 326 326 323 320 316 314 309
237 236 243 253 253 254 252 263 265 267 265 257 252 262 271 270 261 274 277 284 282 276 272 285 297 292 297 296 308 320 328 331 330 328 329 329 327 325
244 243 245 248 258 265 259 260 270 275 281 277 275 280 285 286 283 282 283 289 296 292 251 270 294 305 297 286 303 326 334 335 334 333 331 332 333 330
251 249 254 258 266 264 249 243 258 270 280 290 288 292 288 283 285 263 255 269 287 289 265 288 293 321 310 290 295 313 322 330 335 335 334 336 336 333
249 251 255 262 266 267 265 248 257 271 264 273 282 288 289 281 276 266 254 246 255 259 260 281 280 283 273 295 301 299 309 315 324 325 329 335 336 333
245 251 256 264 268 270 268 269 277 285 259 270 284 286 292 293 289 281 272 258 247 251 258 258 263 269 283 290 295 308 314 310 316 318 320 330 334 334
243 254 264 271 272 269 272 283 297 276 267 271 281 286 285 282 285 291 292 283 274 262 261 253 252 264 267 277 289 300 313 314 320 324 325 325 323 327
252 254 259 264 273 286 280 263 259 249 257 260 274 282 287 290 288 296 297 307 309 305 291 268 252 252 270 275 280 293 300 301 318 320 316 316 321 322
220 194 184 194 244 275 283 273 268 265 271 271 271 281 290 294 295 301 288 290 289 301 317 322 307 272 256 265 284 290 299 302 306 317 322 325 327 329
210 208 214 221 233 247 255 276 281 275 280 282 278 276 286 288 294 299 292 283 284 292 302 313 329 335 330 295 245 283 306 307 316 322 321 321 325 333
214 219 223 227 235 235 241 248 265 277 286 283 278 286 290 286 292 295 295 294 288 291 294 300 321 342 336 324 313 291 303 314 320 324 323 313 313 321
222 222 230 231 233 232 234 249 259 269 278 283 284 288 290 286 289 293 292 295 295 300 306 304 304 307 282 285 294 300 305 299 309 316 318 310 300 309
227 228 233 234 233 231 234 239 246 252 261 274 282 291 282 275 286 299 298 298 300 296 298 299 293 300 290 294 302 308 314 316 305 305 317 318 318 329
227 229 233 233 231 228 227 229 237 245 245 250 267 281 277 265 270 283 289 291 289 290 291 296 310 328 339 314 303 307 317 327 333 331 322 309 314 327
225 225 228 230 230 226 224 228 233 238 234 235 250 264 264 266 270 271 282 290 296 302 309 317 331 339 324 302 302 307 320 327 333 346 348 353 348 331